This demonstration page uses our WeatherBlox Daily Observations layout. Learn more.

Left ArrowRight Arrow

Hourly Observations for March 31, 2017

Temp ( °F °C ) Dew Point ( °F °C ) Humidity (%) Winds ( mph kmh ) Pressure ( in mb ) Visibility ( mi km ) Precip ( " mm )
12:53 am 00:53 Mostly Clear 42 5.6 37 2.8 82 82 ENE 12 19 29.96 1015 10 16 0.00 0.00
1:53 am 01:53 Mostly Clear 41 5 36 2.2 82 82 NE 9 15 29.99 1016 10 16 0.00 0.00
2:53 am 02:53 Clear 40 4.4 35 1.7 83 83 NNE 13 20 30.02 1017 10 16 0.00 0.00
3:48 am 03:48 Mostly Cloudy 39 4 36 2 87 87 N 7 11 30.09 1019 10 16 0.00 0.00
3:53 am 03:53 Cloudy 40 4.4 36 2.2 86 86 N 8 13 30.06 1018 10 16 0.00 0.00
4:53 am 04:53 Cloudy 39 3.9 35 1.7 86 86 N 7 11 30.10 1019 10 16 0.00 0.00
5:53 am 05:53 Cloudy 39 3.9 35 1.7 86 86 N 10 17 30.11 1020 10 16 0.00 0.00
6:07 am 06:07 Cloudy 39 3.9 35 1.7 86 86 N 9 15 30.18 1022 10 16 0.00 0.00
6:53 am 06:53 Cloudy 38 3.3 35 1.7 89 89 N 9 15 30.16 1021 10 16 0.00 0.00
7:35 am 07:35 Cloudy 38 3.3 34 1.1 86 86 N 15 24 30.21 1023 10 16 0.00 0.00
7:53 am 07:53 Cloudy 38 3.3 34 1.1 86 86 N 10 17 30.20 1023 10 16 0.00 0.00
8:53 am 08:53 Cloudy 39 3.9 34 1.1 82 82 N 12 19 30.23 1024 10 16 0.00 0.00
9:53 am 09:53 Cloudy 39 3.9 34 1.1 82 82 NNE 10 17 30.24 1024 10 16 0.00 0.00
10:53 am 10:53 Cloudy 41 5 35 1.7 79 79 NE 8 13 30.25 1024 10 16 0.00 0.00
11:10 am 11:10 Cloudy 43 6 36 2 76 76 ENE 9 15 30.24 1024 10 16 0.00 0.00
11:53 am 11:53 Mostly Cloudy 46 7.8 36 2.2 68 68 ESE 10 17 30.24 1024 10 16 0.00 0.00
12:04 pm 12:04 Mostly Sunny 46 8 36 2 66 66 ESE 10 17 30.24 1024 10 16 0.00 0.00
12:53 pm 12:53 Sunny 47 8.3 36 2.2 66 66 ESE 9 15 30.22 1023 10 16 0.00 0.00
1:53 pm 13:53 Mostly Cloudy 50 10 35 1.7 57 57 NE 7 11 30.22 1023 10 16 0.00 0.00
2:53 pm 14:53 Cloudy 51 10.6 35 1.7 54 54 ENE 9 15 30.20 1023 10 16 0.00 0.00
3:53 pm 15:53 Partly Cloudy 54 12.2 35 1.7 49 49 Calm 30.19 1023 10 16 0.00 0.00
4:53 pm 16:53 Sunny 55 12.8 35 1.7 47 47 ESE 3 6 30.18 1022 10 16 0.00 0.00
5:53 pm 17:53 Sunny 54 12.2 35 1.7 49 49 VRB 3 6 30.15 1021 10 16 0.00 0.00
6:53 pm 18:53 Mostly Sunny 55 12.8 35 1.7 47 47 Calm 30.14 1021 10 16 0.00 0.00
7:53 pm 19:53 Mostly Cloudy 50 10 35 1.7 57 57 SW 3 6 30.15 1021 10 16 0.00 0.00
8:53 pm 20:53 Clear 41 5 34 1.1 76 76 S 10 17 30.16 1021 10 16 0.00 0.00
9:53 pm 21:53 Clear 40 4.4 34 1.1 79 79 S 10 17 30.16 1022 10 16 0.00 0.00
10:53 pm 22:53 Clear 38 3.3 33 0.6 83 83 S 7 11 30.15 1021 10 16 0.00 0.00
11:53 pm 23:53 Clear 38 3.3 33 0.6 83 83 S 8 13 30.12 1020 10 16 0.00 0.00

Powered by AerisWeather